STARLINK-5747, 55574

Orbit data source: Space-Track

STARLINK-5747, 55574 is a payload satellite owned by SpaceX/Seattle (US) in LEO that was launched on Sun, 12 Feb 2023 UTC via an FALCON 9 launch vehicle from the Air Force Eastern Test Range (AFETR). Payload-class satellites include a variety of spacecraft equipped with specific instruments for various scientific and technological missions. These include communications satellites like Starlink; space stations such as the ISS; scientific satellites like the Hubble; Earth observation satellites from companies like Planet Labs, Umbra, and HawkEye 360; GPS; miniature CubeSats for education and research; and military/defense satellites.

Loading next visibility...
Identifier
55574, 2023-020F
Orbit
LEO
Country
Flag of USUS
Related business
Manufacturer
SpaceX/Seattle
Mission
Operational Commercial Communications
Bus & Motor
STARLINK, Unknown motor
Mass
305 kg wet, ~290 kg dry
Launch date (UTC)
2023-02-12 (3 years ago)
Launch vehicle
FALCON 9
Launch site
Air Force Eastern Test Range (AFETR)
Object type
Payload
Rocket body
Debris
Shape & HBR
Box + 1 Pan, 10.1 m
Radar Cross Section
13.562 m², Large (>1 m²)

Expand to show TLE details & history
Last TLE update: 1 day ago

TLE from 1 day ago
0 STARLINK-5747
1 55574U 23020F   25338.20138140  .00000876  00000-0  79924-4 0  9999
2 55574  43.0044 163.6462 0001353 267.4160  92.6527 15.02541464154552
Epoch: 2025-12-04T04:49Z
TLE epoch observation values (Epoch: 2025-12-04T04:49:59.352Z)
Latitude
-0.00007°
Longitude
17.8876°
Altitude
558.885 km
Speed
7.584 km/s
True Right ascension
10h 54m 35s
True Declination
0° 00' 00"
Sunlit
Object was in daylight at epoch
Visualization orbit readout
Latitude
Unknown
Longitude
Unknown
Altitude
Unknown
Speed
Unknown
Apparent Right ascension
Unknown
Apparent Declination
Unknown
Sunlit
N/A
Visualization observer readout
Local Sidereal Time
12:20:15
Azimuth
Unknown
Elevation
Unknown
Doppler factor
Unknown
Orbital elements
Apogee altitude
561.925 km
Perigee altitude
560.047 km
Semi-major axis
6,939.123 km
Eccentricity
0.00014
Inclination
43.0044°
RAAN
163.6462°
Arg. of periapsis
267.416°
True anomaly
92.66819°
Mean anomaly
92.6527°
Eccentric anomaly
92.66044°
Mean motion
3.7548 °/min
Orbital period
95.88 mins
BSTAR
0.000079924
Loading maneuver chart data...
Computing Atmospheric mass density...
Loading historical data...
Loading historical data...
Loading historical data...
Loading historical data...
Loading historical data...
Loading historical data...
Loading historical data...

Documentation

Showing up to 5 results
|